Time,TemperatureF,DewpointF,PressureIn,WindDirection,WindDirectionDegrees,WindSpeedMPH,WindSpeedGustMPH,Humidity,HourlyPrecipIn,Conditions,Clouds,dailyrainin,SoftwareType,DateUTC
2014-02-05 00:06:00,27.7,26.0,30.29,ESE,111,0.0,1.0,91,0.00,,,0.00,weatherlink.com 1.10,2014-02-05 05:06:00,
2014-02-05 00:21:00,27.6,26.0,30.25,East,85,0.0,2.0,92,0.00,,,0.00,weatherlink.com 1.10,2014-02-05 05:21:00,
2014-02-05 00:36:00,27.3,26.0,30.23,ENE,66,0.0,5.0,93,0.00,,,0.00,weatherlink.com 1.10,2014-02-05 05:36:00,
2014-02-05 00:51:00,27.1,25.0,30.20,South,169,1.0,3.0,93,0.00,,,0.00,weatherlink.com 1.10,2014-02-05 05:51:00,
2014-02-05 01:06:00,26.9,25.0,30.21,SSW,207,0.0,3.0,94,0.00,,,0.00,weatherlink.com 1.10,2014-02-05 06:06:00,
2014-02-05 01:21:00,26.9,25.0,30.20,ENE,63,0.0,3.0,94,0.00,,,0.00,weatherlink.com 1.10,2014-02-05 06:21:00,
2014-02-05 01:36:00,26.8,25.0,30.19,SE,134,0.0,2.0,94,0.00,,,0.00,weatherlink.com 1.10,2014-02-05 06:36:00,
2014-02-05 01:51:00,27.1,26.0,30.21,NE,35,1.0,3.0,94,0.00,,,0.00,weatherlink.com 1.10,2014-02-05 06:51:00,
2014-02-05 02:06:00,27.6,26.0,30.18,East,89,0.0,2.0,95,0.00,,,0.00,weatherlink.com 1.10,2014-02-05 07:06:00,
2014-02-05 02:21:00,27.5,26.0,30.17,SE,142,0.0,3.0,95,0.00,,,0.00,weatherlink.com 1.10,2014-02-05 07:21:00,
2014-02-05 02:37:00,27.4,26.0,30.16,SE,137,0.0,2.0,95,0.00,,,0.00,weatherlink.com 1.10,2014-02-05 07:37:00,
2014-02-05 02:52:00,28.0,27.0,30.15,ESE,122,1.0,2.0,96,0.00,,,0.00,weatherlink.com 1.10,2014-02-05 07:52:00,
2014-02-05 03:07:00,28.7,28.0,30.09,ESE,112,0.0,4.0,96,0.00,,,0.00,weatherlink.com 1.10,2014-02-05 08:07:00,
2014-02-05 03:37:00,30.4,30.0,30.11,NE,48,0.0,4.0,97,0.00,,,0.00,weatherlink.com 1.10,2014-02-05 08:37:00,
2014-02-05 03:52:00,30.8,30.0,30.09,ENE,59,0.0,4.0,96,0.00,,,0.00,weatherlink.com 1.10,2014-02-05 08:52:00,
2014-02-05 04:07:00,31.0,30.0,30.10,NE,47,0.0,3.0,97,0.00,,,0.00,weatherlink.com 1.10,2014-02-05 09:07:00,
2014-02-05 04:22:00,30.8,30.0,30.08,NE,55,1.0,4.0,96,0.00,,,0.00,weatherlink.com 1.10,2014-02-05 09:22:00,
2014-02-05 04:37:00,30.3,29.0,30.05,NE,55,0.0,6.0,96,0.00,,,0.00,weatherlink.com 1.10,2014-02-05 09:37:00,
2014-02-05 04:52:00,29.9,29.0,30.06,NE,55,3.0,6.0,96,0.00,,,0.00,weatherlink.com 1.10,2014-02-05 09:52:00,
2014-02-05 05:07:00,30.0,29.0,30.04,NE,55,1.0,4.0,96,0.00,,,0.00,weatherlink.com 1.10,2014-02-05 10:07:00,
2014-02-05 05:22:00,29.8,29.0,30.06,NE,55,1.0,6.0,96,0.00,,,0.00,weatherlink.com 1.10,2014-02-05 10:22:00,
2014-02-05 05:37:00,29.9,29.0,30.07,NE,55,2.0,6.0,96,0.00,,,0.00,weatherlink.com 1.10,2014-02-05 10:37:00,
2014-02-05 05:52:00,30.9,30.0,30.04,NE,55,1.0,3.0,97,0.00,,,0.00,weatherlink.com 1.10,2014-02-05 10:52:00,
2014-02-05 06:07:00,31.1,30.0,30.02,NE,55,1.0,2.0,97,0.00,,,0.00,weatherlink.com 1.10,2014-02-05 11:07:00,
2014-02-05 06:22:00,30.9,30.0,29.98,NE,55,2.0,4.0,97,0.00,,,0.00,weatherlink.com 1.10,2014-02-05 11:22:00,
2014-02-05 06:37:00,31.1,30.0,29.97,NE,55,0.0,0.0,97,0.00,,,0.00,weatherlink.com 1.10,2014-02-05 11:37:00,
2014-02-05 06:52:00,31.4,31.0,29.95,NE,55,0.0,0.0,97,0.00,,,0.00,weatherlink.com 1.10,2014-02-05 11:52:00,
2014-02-05 07:07:00,31.6,31.0,29.94,NE,55,0.0,0.0,96,0.00,,,0.00,weatherlink.com 1.10,2014-02-05 12:07:00,
2014-02-05 07:22:00,31.7,31.0,29.93,NE,55,0.0,0.0,96,0.00,,,0.00,weatherlink.com 1.10,2014-02-05 12:22:00,
2014-02-05 07:37:00,31.9,31.0,29.93,NE,55,0.0,0.0,96,0.00,,,0.00,weatherlink.com 1.10,2014-02-05 12:37:00,
2014-02-05 07:52:00,32.4,32.0,29.93,NE,55,0.0,0.0,97,0.00,,,0.00,weatherlink.com 1.10,2014-02-05 12:52:00,
2014-02-05 08:07:00,32.6,32.0,29.91,NE,55,0.0,0.0,97,0.00,,,0.00,weatherlink.com 1.10,2014-02-05 13:07:00,
2014-02-05 08:22:00,32.6,32.0,29.87,NE,55,0.0,0.0,96,0.00,,,0.00,weatherlink.com 1.10,2014-02-05 13:22:00,
2014-02-05 08:37:00,32.5,32.0,29.86,NE,55,0.0,0.0,96,0.00,,,0.00,weatherlink.com 1.10,2014-02-05 13:37:00,
2014-02-05 08:52:00,32.5,32.0,29.84,NE,55,0.0,0.0,96,0.00,,,0.00,weatherlink.com 1.10,2014-02-05 13:52:00,
2014-02-05 09:07:00,32.4,31.0,29.84,NE,55,0.0,0.0,96,0.00,,,0.00,weatherlink.com 1.10,2014-02-05 14:07:00,
2014-02-05 09:22:00,32.3,31.0,29.83,NE,55,0.0,0.0,96,0.00,,,0.00,weatherlink.com 1.10,2014-02-05 14:22:00,
2014-02-05 09:37:00,32.3,31.0,29.82,NE,55,0.0,0.0,96,0.00,,,0.00,weatherlink.com 1.10,2014-02-05 14:37:00,
2014-02-05 09:52:00,32.2,31.0,29.80,NE,55,0.0,0.0,96,0.00,,,0.00,weatherlink.com 1.10,2014-02-05 14:52:00,
2014-02-05 10:08:00,32.3,32.0,29.78,NE,55,0.0,0.0,97,0.00,,,0.00,weatherlink.com 1.10,2014-02-05 15:08:00,
2014-02-05 10:23:00,32.5,32.0,29.77,NE,55,0.0,0.0,96,0.00,,,0.00,weatherlink.com 1.10,2014-02-05 15:23:00,
2014-02-05 10:38:00,32.6,32.0,29.76,NE,55,0.0,0.0,97,0.00,,,0.00,weatherlink.com 1.10,2014-02-05 15:38:00,
2014-02-05 10:53:00,32.8,32.0,29.74,NE,55,0.0,0.0,97,0.00,,,0.00,weatherlink.com 1.10,2014-02-05 15:53:00,
2014-02-05 11:08:00,32.7,32.0,29.74,NE,55,0.0,0.0,97,0.00,,,0.00,weatherlink.com 1.10,2014-02-05 16:08:00,
2014-02-05 11:23:00,32.6,32.0,29.73,NE,55,0.0,0.0,97,0.00,,,0.00,weatherlink.com 1.10,2014-02-05 16:23:00,
2014-02-05 11:38:00,32.7,32.0,29.75,NE,55,0.0,0.0,97,0.00,,,0.00,weatherlink.com 1.10,2014-02-05 16:38:00,
2014-02-05 11:53:00,32.9,32.0,29.73,NE,55,0.0,0.0,97,0.00,,,0.00,weatherlink.com 1.10,2014-02-05 16:53:00,
2014-02-05 12:08:00,33.0,32.0,29.73,NE,55,0.0,0.0,97,0.00,,,0.00,weatherlink.com 1.10,2014-02-05 17:08:00,
2014-02-05 12:23:00,33.0,32.0,29.73,NE,55,0.0,0.0,97,0.00,,,0.00,weatherlink.com 1.10,2014-02-05 17:23:00,
2014-02-05 12:38:00,33.0,32.0,29.71,NE,55,0.0,0.0,97,0.00,,,0.00,weatherlink.com 1.10,2014-02-05 17:38:00,
2014-02-05 12:53:00,33.2,33.0,29.71,NE,54,0.0,0.0,97,0.00,,,0.00,weatherlink.com 1.10,2014-02-05 17:53:00,
2014-02-05 13:08:00,33.2,33.0,29.71,NE,54,0.0,0.0,97,0.00,,,0.00,weatherlink.com 1.10,2014-02-05 18:08:00,
2014-02-05 13:23:00,33.2,33.0,29.69,NE,53,0.0,0.0,97,0.00,,,0.00,weatherlink.com 1.10,2014-02-05 18:23:00,
2014-02-05 13:38:00,33.2,33.0,29.69,NE,53,0.0,0.0,97,0.00,,,0.00,weatherlink.com 1.10,2014-02-05 18:38:00,
2014-02-05 13:53:00,33.3,33.0,29.70,NE,53,0.0,0.0,97,0.00,,,0.00,weatherlink.com 1.10,2014-02-05 18:53:00,
2014-02-05 14:08:00,33.3,33.0,29.68,NE,53,0.0,0.0,97,0.00,,,0.00,weatherlink.com 1.10,2014-02-05 19:08:00,
2014-02-05 14:23:00,33.5,33.0,29.68,NE,52,0.0,0.0,97,0.00,,,0.00,weatherlink.com 1.10,2014-02-05 19:23:00,
2014-02-05 14:38:00,33.5,33.0,29.68,NE,52,0.0,0.0,97,0.00,,,0.00,weatherlink.com 1.10,2014-02-05 19:38:00,
2014-02-05 14:53:00,33.6,33.0,29.68,NE,52,0.0,0.0,97,0.00,,,0.00,weatherlink.com 1.10,2014-02-05 19:53:00,
2014-02-05 15:08:00,33.3,32.0,29.68,NE,52,0.0,0.0,96,0.00,,,0.00,weatherlink.com 1.10,2014-02-05 20:08:00,
2014-02-05 15:23:00,33.2,33.0,29.69,NE,53,0.0,0.0,97,0.00,,,0.00,weatherlink.com 1.10,2014-02-05 20:23:00,
2014-02-05 15:38:00,33.3,33.0,29.69,NE,53,0.0,0.0,97,0.00,,,0.00,weatherlink.com 1.10,2014-02-05 20:38:00,
2014-02-05 15:53:00,33.3,33.0,29.69,NE,53,0.0,0.0,97,0.00,,,0.00,weatherlink.com 1.10,2014-02-05 20:53:00,
2014-02-05 16:08:00,33.3,33.0,29.70,NE,53,0.0,0.0,97,0.01,,,0.01,weatherlink.com 1.10,2014-02-05 21:08:00,
2014-02-05 16:23:00,33.3,33.0,29.70,NE,53,0.0,0.0,97,0.01,,,0.01,weatherlink.com 1.10,2014-02-05 21:23:00,
2014-02-05 16:38:00,33.3,33.0,29.70,NE,53,0.0,0.0,97,0.01,,,0.01,weatherlink.com 1.10,2014-02-05 21:38:00,
2014-02-05 16:53:00,33.2,33.0,29.70,NE,53,0.0,0.0,97,0.00,,,0.01,weatherlink.com 1.10,2014-02-05 21:53:00,
2014-02-05 17:08:00,33.2,33.0,29.72,NE,53,0.0,0.0,97,0.00,,,0.01,weatherlink.com 1.10,2014-02-05 22:08:00,
2014-02-05 17:23:00,33.2,33.0,29.73,NE,53,0.0,0.0,97,0.00,,,0.01,weatherlink.com 1.10,2014-02-05 22:23:00,
2014-02-05 17:38:00,33.2,33.0,29.74,NE,53,0.0,0.0,97,0.00,,,0.01,weatherlink.com 1.10,2014-02-05 22:38:00,
2014-02-05 17:53:00,33.3,33.0,29.75,NE,53,0.0,0.0,97,0.00,,,0.01,weatherlink.com 1.10,2014-02-05 22:53:00,
2014-02-05 18:08:00,33.5,33.0,29.76,NE,53,0.0,0.0,97,0.00,,,0.01,weatherlink.com 1.10,2014-02-05 23:08:00,
2014-02-05 18:23:00,33.6,33.0,29.77,NE,53,0.0,0.0,97,0.00,,,0.01,weatherlink.com 1.10,2014-02-05 23:23:00,
2014-02-05 18:38:00,33.8,33.0,29.78,NE,53,0.0,0.0,97,0.00,,,0.01,weatherlink.com 1.10,2014-02-05 23:38:00,
2014-02-05 18:53:00,33.9,33.0,29.79,NE,53,0.0,0.0,97,0.00,,,0.01,weatherlink.com 1.10,2014-02-05 23:53:00,
2014-02-05 19:08:00,34.0,33.0,29.80,NE,53,0.0,0.0,97,0.00,,,0.01,weatherlink.com 1.10,2014-02-06 00:08:00,
2014-02-05 19:23:00,34.0,33.0,29.80,NE,53,0.0,0.0,96,0.00,,,0.01,weatherlink.com 1.10,2014-02-06 00:23:00,
2014-02-05 19:38:00,34.0,33.0,29.82,NE,53,0.0,0.0,96,0.00,,,0.01,weatherlink.com 1.10,2014-02-06 00:38:00,
2014-02-05 19:53:00,33.9,33.0,29.83,NE,53,0.0,0.0,95,0.00,,,0.01,weatherlink.com 1.10,2014-02-06 00:53:00,
2014-02-05 20:08:00,33.8,33.0,29.84,NE,53,0.0,0.0,95,0.00,,,0.01,weatherlink.com 1.10,2014-02-06 01:08:00,
2014-02-05 20:23:00,33.4,32.0,29.85,NE,53,0.0,0.0,93,0.00,,,0.01,weatherlink.com 1.10,2014-02-06 01:23:00,
2014-02-05 20:38:00,33.2,31.0,29.87,NE,53,0.0,0.0,93,0.00,,,0.01,weatherlink.com 1.10,2014-02-06 01:38:00,
2014-02-05 20:53:00,32.6,30.0,29.88,NE,53,0.0,0.0,91,0.00,,,0.01,weatherlink.com 1.10,2014-02-06 01:53:00,
2014-02-05 21:08:00,32.1,30.0,29.89,NE,53,0.0,0.0,90,0.00,,,0.01,weatherlink.com 1.10,2014-02-06 02:08:00,
2014-02-05 21:23:00,31.7,29.0,29.93,NE,53,0.0,0.0,90,0.00,,,0.01,weatherlink.com 1.10,2014-02-06 02:23:00,
2014-02-05 21:38:00,31.1,29.0,29.93,NE,53,0.0,0.0,90,0.00,,,0.01,weatherlink.com 1.10,2014-02-06 02:38:00,
2014-02-05 21:53:00,30.4,28.0,29.95,NE,53,0.0,0.0,89,0.00,,,0.01,weatherlink.com 1.10,2014-02-06 02:53:00,
2014-02-05 22:08:00,29.6,26.0,29.97,NE,53,0.0,0.0,87,0.00,,,0.01,weatherlink.com 1.10,2014-02-06 03:08:00,
2014-02-05 22:23:00,29.0,26.0,29.97,NE,53,0.0,0.0,88,0.00,,,0.01,weatherlink.com 1.10,2014-02-06 03:23:00,
2014-02-05 22:38:00,28.3,25.0,30.00,NE,53,0.0,0.0,87,0.00,,,0.01,weatherlink.com 1.10,2014-02-06 03:38:00,
2014-02-05 22:53:00,27.8,24.0,30.01,NE,53,0.0,0.0,87,0.00,,,0.01,weatherlink.com 1.10,2014-02-06 03:53:00,
2014-02-05 23:08:00,27.3,24.0,30.02,NE,53,0.0,0.0,88,0.00,,,0.01,weatherlink.com 1.10,2014-02-06 04:08:00,
2014-02-05 23:23:00,27.0,24.0,30.04,NE,53,0.0,0.0,88,0.00,,,0.01,weatherlink.com 1.10,2014-02-06 04:23:00,
2014-02-05 23:38:00,26.4,23.0,30.05,NE,53,0.0,0.0,87,0.00,,,0.01,weatherlink.com 1.10,2014-02-06 04:38:00,
2014-02-05 23:53:00,26.1,23.0,30.07,NE,53,0.0,0.0,89,0.00,,,0.01,weatherlink.com 1.10,2014-02-06 04:53:00,